Location: Union Point
(37.5492°N, 89.5040°W)
Time: 22:52:59
(UTC+00:00)

Daily predictions for brighter satellites

Satellite Brightness Start Highest point End
(mag) Time Altitude Azimuth Time Altitude Azimuth Time Altitude Azimuth
ASTRO E2 4.4 12:00:49 10° SW 12:04:11 26° SSE 12:07:34 10° ESE
YAOGAN 6 2.8 12:01:17 10° N 12:04:41 44° WNW 12:08:01 10° SSW
Cosmos 1689 Rocket 1.9 12:04:12 10° S 12:06:59 62° W 12:09:47 10° NNW
H-2A R/B 3.5 12:05:44 10° NNE 12:09:47 51° E 12:13:40 10° S
ATLAS CENTAUR R/B 1.4 12:05:45 10° NW 12:09:49 68° WSW 12:14:09 10° SSE
Cosmos 1709 Rocket 4.3 12:06:08 10° NNW 12:12:12 49° W 12:18:17 10° SSW
